• In Deutschland
  • Länderverzeichnis
  • Für 7 Tage
  • Wassertemperatur
  • Satellitenkarten
  • Wetterkarte
  • Widgets
  • user-avatar
    Anmelden

    Stündliche Wetter Zabrze

    Heute, 12 Dezember, Dienstag

    Zeit Temperatur Niederschläge Wind Luftdruck Luftfeuchtigkeit
    00:00 +8°C° 0 mm 9 m/S 722 mmHg 77%
    01:00 +8°C° 0 mm 5 m/S 722 mmHg 80%
    02:00 +8°C° 0 mm 5 m/S 723 mmHg 79%
    03:00 +8°C° 0 mm 6 m/S 723 mmHg 79%
    04:00 +9°C° 0 mm 7 m/S 723 mmHg 78%
    05:00 +9°C° 0 mm 7 m/S 724 mmHg 78%
    06:00 +9°C° 0 mm 7 m/S 725 mmHg 78%
    07:00 +9°C° 0 mm 3 m/S 725 mmHg 84%
    08:00 +8°C° 0,2 mm 4 m/S 726 mmHg 82%
    09:00 +8°C° 0,2 mm 5 m/S 727 mmHg 80%
    10:00 +8°C° 0,2 mm 6 m/S 728 mmHg 78%
    11:00 +8°C° 0 mm 6 m/S 729 mmHg 71%
    12:00 +9°C° 0 mm 6 m/S 730 mmHg 64%
    13:00 +9°C° 0 mm 7 m/S 731 mmHg 57%
    14:00 +8°C° 0 mm 6 m/S 732 mmHg 59%
    15:00 +7°C° 0 mm 6 m/S 732 mmHg 60%
    16:00 +6°C° 0 mm 5 m/S 733 mmHg 62%
    17:00 +5°C° 0 mm 5 m/S 734 mmHg 62%
    18:00 +3°C° 0 mm 5 m/S 735 mmHg 62%
    19:00 +4°C° 0 mm 4 m/S 736 mmHg 63%
    20:00 +3°C° 0 mm 4 m/S 736 mmHg 63%
    21:00 +3°C° 0 mm 4 m/S 737 mmHg 63%
    22:00 +3°C° 0 mm 3 m/S 737 mmHg 64%
    23:00 +3°C° 0 mm 3 m/S 738 mmHg 65%

    Morgen, 13 Dezember, Mittwoch

    Zeit Temperatur Niederschläge Wind Luftdruck Luftfeuchtigkeit
    00:00 +2°C° 0 mm 3 m/S 738 mmHg 66%
    01:00 +2°C° 0 mm 3 m/S 739 mmHg 67%
    02:00 +2°C° 0 mm 3 m/S 739 mmHg 69%
    03:00 +1°C° 0 mm 3 m/S 739 mmHg 71%
    04:00 +1°C° 0 mm 3 m/S 739 mmHg 74%
    05:00 +2°C° 0 mm 2 m/S 739 mmHg 76%
    06:00 +1°C° 0 mm 2 m/S 740 mmHg 79%
    07:00 +1°C° 0 mm 2 m/S 740 mmHg 81%
    08:00 +1°C° 0 mm 2 m/S 740 mmHg 78%
    09:00 +2°C° 0 mm 2 m/S 740 mmHg 76%
    10:00 +2°C° 0 mm 2 m/S 741 mmHg 73%
    11:00 +2°C° 0 mm 2 m/S 740 mmHg 70%
    12:00 +3°C° 0 mm 2 m/S 740 mmHg 67%
    13:00 +3°C° 0 mm 2 m/S 739 mmHg 63%
    14:00 +3°C° 0 mm 2 m/S 739 mmHg 66%
    15:00 +2°C° 0 mm 2 m/S 739 mmHg 68%
    16:00 +1°C° 0 mm 2 m/S 738 mmHg 71%
    17:00 0°C° 0 mm 3 m/S 738 mmHg 72%
    18:00 0°C° 0 mm 3 m/S 737 mmHg 73%
    19:00 -1°C° 0 mm 3 m/S 737 mmHg 74%
    20:00 -2°C° 0 mm 4 m/S 736 mmHg 72%
    21:00 -2°C° 0 mm 4 m/S 735 mmHg 71%
    22:00 -2°C° 0 mm 4 m/S 734 mmHg 69%
    23:00 -2°C° 0 mm 5 m/S 733 mmHg 66%

    übermorgen, 14 Dezember, Donnerstag

    Zeit Temperatur Niederschläge Wind Luftdruck Luftfeuchtigkeit
    00:00 -1°C° 0 mm 5 m/S 732 mmHg 64%
    01:00 -1°C° 0 mm 5 m/S 731 mmHg 61%
    02:00 -2°C° 0 mm 6 m/S 730 mmHg 61%
    03:00 -2°C° 0 mm 6 m/S 729 mmHg 61%
    04:00 -2°C° 0 mm 6 m/S 728 mmHg 61%
    05:00 -1°C° 0,1 mm 6 m/S 728 mmHg 63%
    06:00 -1°C° 0,1 mm 6 m/S 727 mmHg 65%
    07:00 +1°C° 0,1 mm 6 m/S 726 mmHg 66%
    08:00 0°C° 0 mm 7 m/S 726 mmHg 66%
    09:00 +1°C° 0 mm 8 m/S 727 mmHg 66%
    10:00 +2°C° 0 mm 9 m/S 727 mmHg 66%
    11:00 +2°C° 0,1 mm 9 m/S 727 mmHg 61%
    12:00 +2°C° 0,1 mm 9 m/S 727 mmHg 56%
    13:00 +2°C° 0,1 mm 10 m/S 728 mmHg 50%
    14:00 +1°C° 0 mm 8 m/S 728 mmHg 53%
    15:00 0°C° 0 mm 7 m/S 729 mmHg 56%
    16:00 +1°C° 0 mm 5 m/S 729 mmHg 58%
    17:00 0°C° 0 mm 5 m/S 730 mmHg 59%
    18:00 0°C° 0 mm 5 m/S 730 mmHg 60%
    19:00 -1°C° 0 mm 5 m/S 730 mmHg 61%
    20:00 -1°C° 0 mm 5 m/S 730 mmHg 61%
    21:00 -1°C° 0 mm 5 m/S 729 mmHg 60%
    22:00 -1°C° 0 mm 5 m/S 729 mmHg 60%
    23:00 -1°C° 0 mm 5 m/S 728 mmHg 61%

    15 Dezember, Freitag

    Zeit Temperatur Niederschläge Wind Luftdruck Luftfeuchtigkeit
    00:00 0°C° 0 mm 5 m/S 728 mmHg 62%
    01:00 0°C° 0 mm 5 m/S 727 mmHg 63%
    02:00 0°C° 0,1 mm 5 m/S 726 mmHg 63%
    03:00 0°C° 0,1 mm 5 m/S 725 mmHg 64%
    04:00 0°C° 0,1 mm 5 m/S 724 mmHg 65%
    05:00 +1°C° 0,1 mm 6 m/S 723 mmHg 68%
    06:00 +2°C° 0,1 mm 6 m/S 723 mmHg 71%
    07:00 +2°C° 0,1 mm 7 m/S 723 mmHg 74%
    08:00 +2°C° 0 mm 7 m/S 723 mmHg 72%
    09:00 +3°C° 0 mm 7 m/S 723 mmHg 70%
    10:00 +3°C° 0 mm 7 m/S 723 mmHg 68%
    11:00 +2°C° 0 mm 7 m/S 724 mmHg 66%
    12:00 +2°C° 0 mm 6 m/S 725 mmHg 65%
    13:00 +2°C° 0 mm 6 m/S 725 mmHg 64%
    14:00 +1°C° 0 mm 5 m/S 726 mmHg 66%
    15:00 +1°C° 0 mm 5 m/S 726 mmHg 68%
    16:00 +1°C° 0 mm 4 m/S 727 mmHg 70%
    17:00 0°C° 0 mm 4 m/S 727 mmHg 71%
    18:00 +1°C° 0 mm 3 m/S 728 mmHg 73%
    19:00 0°C° 0 mm 3 m/S 728 mmHg 74%
    20:00 0°C° 0 mm 3 m/S 728 mmHg 75%
    21:00 -1°C° 0 mm 3 m/S 728 mmHg 76%
    22:00 -1°C° 0 mm 2 m/S 728 mmHg 77%
    23:00 -1°C° 0 mm 3 m/S 728 mmHg 78%

    16 Dezember, Samstag

    Zeit Temperatur Niederschläge Wind Luftdruck Luftfeuchtigkeit
    00:00 -1°C° 0 mm 3 m/S 728 mmHg 78%
    01:00 -1°C° 0 mm 3 m/S 728 mmHg 79%
    02:00 -1°C° 0 mm 3 m/S 728 mmHg 80%
    03:00 -1°C° 0 mm 3 m/S 729 mmHg 80%
    04:00 -1°C° 0 mm 3 m/S 729 mmHg 81%
    05:00 0°C° 0,1 mm 3 m/S 729 mmHg 82%
    06:00 0°C° 0,1 mm 3 m/S 729 mmHg 82%
    07:00 0°C° 0,1 mm 3 m/S 730 mmHg 83%
    08:00 -1°C° 0,1 mm 4 m/S 730 mmHg 81%
    09:00 0°C° 0,1 mm 4 m/S 731 mmHg 80%
    10:00 0°C° 0,1 mm 5 m/S 731 mmHg 79%
    11:00 0°C° 0,1 mm 5 m/S 731 mmHg 77%
    12:00 +1°C° 0,1 mm 5 m/S 732 mmHg 74%
    13:00 +1°C° 0,1 mm 5 m/S 732 mmHg 72%
    14:00 0°C° 0 mm 4 m/S 733 mmHg 74%
    15:00 0°C° 0 mm 4 m/S 733 mmHg 76%
    16:00 -1°C° 0 mm 4 m/S 733 mmHg 78%
    17:00 -1°C° 0 mm 4 m/S 734 mmHg 79%
    18:00 -1°C° 0 mm 4 m/S 734 mmHg 79%
    19:00 -1°C° 0 mm 4 m/S 735 mmHg 80%
    20:00 -1°C° 0 mm 4 m/S 735 mmHg 80%
    21:00 -1°C° 0 mm 4 m/S 736 mmHg 81%
    22:00 -1°C° 0 mm 4 m/S 736 mmHg 81%
    23:00 -2°C° 0 mm 4 m/S 737 mmHg 82%

    17 Dezember, Sonntag

    Zeit Temperatur Niederschläge Wind Luftdruck Luftfeuchtigkeit
    00:00 -2°C° 0 mm 4 m/S 737 mmHg 83%
    01:00 -2°C° 0 mm 4 m/S 737 mmHg 84%
    02:00 -2°C° 0 mm 4 m/S 738 mmHg 85%
    03:00 -2°C° 0 mm 3 m/S 738 mmHg 85%
    04:00 -2°C° 0 mm 3 m/S 738 mmHg 85%
    05:00 -2°C° 0 mm 3 m/S 738 mmHg 85%
    06:00 -2°C° 0 mm 3 m/S 739 mmHg 85%
    07:00 -2°C° 0 mm 3 m/S 739 mmHg 85%
    08:00 -1°C° 0 mm 3 m/S 740 mmHg 82%
    09:00 -1°C° 0 mm 3 m/S 740 mmHg 79%
    10:00 0°C° 0 mm 3 m/S 741 mmHg 75%
    11:00 0°C° 0 mm 3 m/S 741 mmHg 74%
    12:00 +1°C° 0 mm 3 m/S 741 mmHg 73%
    13:00 +1°C° 0 mm 3 m/S 741 mmHg 72%
    14:00 +1°C° 0,1 mm 3 m/S 742 mmHg 75%
    15:00 0°C° 0,1 mm 3 m/S 742 mmHg 79%
    16:00 +1°C° 0,1 mm 2 m/S 742 mmHg 82%
    17:00 -1°C° 0,1 mm 2 m/S 743 mmHg 84%
    18:00 -1°C° 0,1 mm 2 m/S 743 mmHg 86%
    19:00 -2°C° 0,1 mm 2 m/S 744 mmHg 88%
    20:00 -2°C° 0 mm 2 m/S 744 mmHg 87%
    21:00 -2°C° 0 mm 2 m/S 744 mmHg 87%
    22:00 -2°C° 0 mm 2 m/S 745 mmHg 87%
    23:00 -2°C° 0 mm 2 m/S 745 mmHg 87%
    Mehr zeigen